This is the latest recevied weather packets stored in our database for station/object N4OOJ-13. If no packets are shown the sender has not sent any weather packets the latest 10 day(s).
| Time | Temp. | Humidity | Pressure | Rain* | Wind** | Luminosity | Snow |
|---|---|---|---|---|---|---|---|
| 1777954232 | 12.22° C | 93% | 1019.2 hPa | 0 mm | - | - | - |
| 1777953627 | 12.22° C | 91% | 1019.2 hPa | 0 mm | - | - | - |
| 1777953020 | 12.22° C | 91% | 1019.2 hPa | 0 mm | - | - | - |
| 1777952416 | 12.78° C | 91% | 1019.1 hPa | 0 mm | - | - | - |
| 1777951828 | 12.78° C | 89% | 1019.2 hPa | 0 mm | - | - | - |
| 1777951227 | 13.33° C | 88% | 1019.2 hPa | 0 mm | - | - | - |
| 1777950627 | 13.33° C | 87% | 1019.2 hPa | 0 mm | - | - | - |
| 1777950027 | 13.33° C | 86% | 1019.2 hPa | 0 mm | - | - | - |
| 1777949423 | 13.89° C | 86% | 1019.1 hPa | 0 mm | - | - | - |
| 1777948816 | 13.89° C | 85% | 1019 hPa | 0 mm | - | - | - |
| 1777948233 | 14.44° C | 84% | 1019 hPa | 0 mm | - | - | - |
| 1777947633 | 14.44° C | 81% | 1018.9 hPa | 0 mm | - | - | - |
| 1777947033 | 15° C | 79% | 1018.9 hPa | 0 mm | - | - | - |
| 1777946422 | 15° C | 79% | 1018.9 hPa | 0 mm | - | - | - |
| 1777945821 | 15° C | 78% | 1018.9 hPa | 0 mm | - | - | - |
| 1777945221 | 15.56° C | 75% | 1018.8 hPa | 0 mm | - | - | - |
| 1777944621 | 15.56° C | 74% | 1018.8 hPa | 0 mm | - | - | - |
| 1777944026 | 15.56° C | 76% | 1018.7 hPa | 0 mm | - | - | - |
| 1777943420 | 16.11° C | 73% | 1018.6 hPa | 0 mm | - | - | - |
| 1777942826 | 16.11° C | 73% | 1018.6 hPa | 0 mm | - | - | - |
| 1777942225 | 16.67° C | 72% | 1018.6 hPa | 0 mm | - | - | - |
| 1777941624 | 17.22° C | 70% | 1018.4 hPa | 0 mm | - | - | - |
| 1777941018 | 17.78° C | 66% | 1018.4 hPa | 0 mm | - | - | - |
| 1777940418 | 18.89° C | 65% | 1018.4 hPa | 0 mm | - | - | - |
| 1777939819 | 19.44° C | 63% | 1018.4 hPa | 0 mm | - | - | - |
* Rain latest hour (hover to see other rain measurements)
** Current wind speed in m/s (hover to see current wind gust speed)